Lid_Strength_Index
5 7 8 8 7 7 7 7 8 7 7 6 8 9 9 6 5 5 5 5 4 4 3 2 2 1 1 1 1 1 1 0 0 1 1 1 1 1 0 -0 -1 -1 -1 -2
7 9 7 5 6 7 7 8 8 7 7 7 7 10 8 7 5 5 5 5 4 4 3 3 2 2 2 1 1 1 1 1 0 1 1 1 1 0 0 -0 -0 -1 -1 -1
8 7 6 6 6 7 7 8 8 8 7 6 7 8 7 6 5 5 4 4 4 4 4 3 3 2 2 2 2 1 1 1 0 0 0 0 -0 0 1 1 1 -0 -1 -1
7 6 6 7 7 6 8 6 7 7 9 11 7 12 9 7 7 6 5 4 4 4 3 3 3 3 2 2 1 1 1 1 0 0 1 1 2 2 1 0 0 0 -1 -1
7 7 7 8 7 6 7 6 7 7 9 9 10 12 9 7 8 7 5 5 4 4 3 3 3 2 2 1 1 1 1 1 1 0 0 1 1 1 1 0 1 0 -0 -1
6 5 6 6 6 5 5 6 6 7 8 12 11 11 12 9 8 7 5 4 4 4 3 3 2 2 2 1 1 1 1 1 1 1 1 1 1 1 1 1 1 1 0 0
7 7 5 5 7 5 6 8 11 12 12 12 9 12 11 7 6 6 6 5 4 4 3 3 3 3 2 2 2 2 2 2 1 1 1 1 1 1 1 1 1 1 1 1
9 10 7 5 7 7 7 8 11 15 14 12 8 11 10 6 5 6 5 5 4 4 3 3 3 3 2 2 2 2 2 2 1 1 1 1 1 1 1 1 1 1 1 1
9 9 6 5 5 6 7 9 7 9 9 11 10 8 6 6 6 6 5 4 4 4 3 3 3 3 2 2 2 2 2 2 2 1 1 1 1 1 1 1 0 0 0 0
7 9 6 6 5 6 6 6 9 9 14 15 11 10 10 8 8 6 6 5 4 4 3 3 3 3 2 2 2 2 2 2 2 1 1 1 1 1 1 1 1 1 0 0
6 8 8 6 7 8 7 8 8 8 9 12 13 11 6 7 7 6 5 4 4 3 3 3 3 2 2 2 2 2 2 2 2 1 1 1 1 1 1 1 1 1 0 0
6 7 9 8 6 5 6 7 8 10 11 9 10 10 5 5 5 5 5 4 3 3 3 2 3 2 2 2 2 2 2 2 2 1 1 1 1 1 1 1 1 0 1 0
6 8 10 10 8 6 7 7 7 7 8 10 11 10 5 5 5 5 4 4 4 3 2 2 3 3 3 2 2 2 2 2 1 1 2 1 1 1 1 1 1 1 1 1
5 7 9 11 9 7 8 8 7 8 10 10 9 8 7 6 6 5 4 4 3 3 3 3 1 2 3 2 2 2 2 1 1 2 2 2 2 1 1 1 1 1 1 1
6 9 8 8 7 7 8 8 8 8 8 10 8 8 7 6 6 5 3 3 3 3 3 4 3 2 2 3 2 2 2 2 1 2 2 2 1 1 1 1 1 1 1 1
5 9 8 9 7 8 8 7 7 7 7 8 7 8 5 5 4 5 5 4 4 4 3 3 3 3 3 3 3 2 2 2 1 2 2 2 2 1 1 1 1 1 1 1
7 8 10 11 8 8 10 8 7 7 7 7 9 7 5 5 5 5 5 4 4 4 3 3 3 3 3 3 2 3 2 2 2 2 2 2 2 2 2 1 1 1 1 1
8 8 9 11 10 14 8 6 6 7 6 6 6 5 5 5 4 4 3 3 3 3 3 2 2 3 2 2 2 2 2 2 2 2 2 2 2 2 2 2 2 2 1 1
6 8 10 12 11 9 8 7 7 7 8 5 6 5 5 4 4 4 3 3 3 3 2 2 2 2 2 2 2 2 2 2 2 2 2 2 2 2 2 2 2 2 2 2
6 7 9 10 12 14 8 6 5 5 10 5 5 5 5 4 7 5 3 3 3 2 2 2 2 1 2 2 2 2 3 3 3 2 2 2 2 2 2 2 2 1 1 2
9 9 10 11 11 9 6 5 5 11 10 6 5 5 5 6 5 4 3 3 2 2 2 2 2 2 1 2 2 3 3 3 2 2 2 2 2 2 1 1 1 1 1 1
10 11 10 10 12 13 5 6 9 7 6 5 5 5 5 4 4 4 3 2 2 3 2 1 1 1 2 2 2 3 3 2 2 2 2 2 2 2 1 2 2 2 2 2
11 8 10 9 10 8 6 7 5 5 5 5 5 4 4 4 4 3 4 3 3 3 2 2 1 3 2 2 2 3 3 2 2 2 2 2 2 2 1 2 2 2 2 2
9 8 10 8 7 7 6 5 4 4 5 4 4 4 4 4 4 4 4 3 3 3 3 3 3 4 3 2 2 2 2 2 2 2 2 2 2 2 2 2 2 2 2 3
10 9 10 10 7 6 6 5 4 4 4 4 4 4 4 5 5 5 5 4 3 3 3 3 3 4 3 3 2 2 2 2 2 2 2 2 2 2 5 8 8 2 6 5
8 10 11 12 9 9 7 5 4 5 5 4 4 5 4 4 5 4 4 4 4 4 3 4 4 4 3 3 2 2 2 2 2 3 3 3 2 3 4 5 7 14 13 14